This is the latest recevied weather packets stored in our database for station/object KA8OAD-10. If no packets are shown the sender has not sent any weather packets the latest 10 day(s).
| Time | Temp. | Humidity | Pressure | Rain* | Wind** | Luminosity | Snow |
|---|---|---|---|---|---|---|---|
| 1777582350 | 11.11° C | 61% | 1012.3 hPa | 0 mm | - | 51 W/m² | - |
| 1777581753 | 11.11° C | 62% | 1012.3 hPa | 0 mm | - | 158 W/m² | - |
| 1777581452 | 11.11° C | 61% | 1012.3 hPa | 0 mm | - | 144 W/m² | - |
| 1777580551 | 11.11° C | 60% | 1012.3 hPa | 0 mm | - | 120 W/m² | - |
| 1777580250 | 11.11° C | 62% | 1012.3 hPa | 0 mm | - | 174 W/m² | - |
| 1777579653 | 11.11° C | 63% | 1012.3 hPa | 0 mm | - | 197 W/m² | - |
| 1777579352 | 11.11° C | 65% | 1012.2 hPa | 0 mm | - | 197 W/m² | - |
| 1777578150 | 10.56° C | 73% | 1012.4 hPa | 0 mm | - | 171 W/m² | - |
| 1777577850 | 10.56° C | 76% | 1012.4 hPa | 0 mm | - | 171 W/m² | - |
| 1777577550 | 10.56° C | 76% | 1012.5 hPa | 0 mm | - | 200 W/m² | - |
| 1777576952 | 10.56° C | 77% | 1012.5 hPa | 0 mm | - | 72 W/m² | - |
| 1777576652 | 10.56° C | 79% | 1012.5 hPa | 0.25 mm | - | 211 W/m² | - |
| 1777576351 | 10° C | 80% | 1012.7 hPa | 0.25 mm | - | 837 W/m² | - |
| 1777576050 | 10° C | 80% | 1012.8 hPa | 0.25 mm | - | 837 W/m² | - |
| 1777575750 | 10° C | 80% | 1012.8 hPa | 0.25 mm | - | 858 W/m² | - |
| 1777575449 | 9.44° C | 82% | 1012.9 hPa | 0.25 mm | - | 830 W/m² | - |
| 1777575152 | 9.44° C | 81% | 1012.8 hPa | 0.25 mm | - | 840 W/m² | - |
| 1777574852 | 9.44° C | 81% | 1012.8 hPa | 0.25 mm | - | 541 W/m² | - |
| 1777574552 | 9.44° C | 81% | 1012.9 hPa | 0.25 mm | - | 918 W/m² | - |
| 1777574251 | 8.89° C | 77% | 1013 hPa | 0.25 mm | - | 503 W/m² | - |
| 1777573050 | 10° C | 74% | 1012.9 hPa | 0 mm | - | 95 W/m² | - |
| 1777572752 | 9.44° C | 75% | 1012.9 hPa | 0 mm | - | 483 W/m² | - |
| 1777572452 | 9.44° C | 76% | 1012.9 hPa | 0 mm | - | 367 W/m² | - |
| 1777572152 | 9.44° C | 76% | 1012.9 hPa | 0 mm | - | 302 W/m² | - |
| 1777571851 | 8.89° C | 75% | 1013 hPa | 0 mm | - | 295 W/m² | - |
* Rain latest hour (hover to see other rain measurements)
** Current wind speed in m/s (hover to see current wind gust speed)